GFSMW_sfc_30mbdewp_102.txt.gz
Dewpoint
39 39 41 42 43 44 45 45 47 48 50 49 43 52 57 62 61 62 62 63 64 65 65 64 64 63 62 62 62 61 60 60 61 60 60 60 61 60 60 60 61 61 62
38 39 40 42 43 44 45 45 46 46 47 49 48 47 54 56 59 61 63 63 64 65 64 63 63 63 62 62 62 61 59 60 61 58 57 54 55 59 60 60 60 60 61
38 38 39 41 42 42 43 44 45 46 47 49 50 49 54 56 59 61 63 64 64 64 63 63 62 62 62 62 62 61 60 59 60 59 56 53 53 55 58 59 59 60 60
39 38 38 39 40 41 42 42 43 44 45 47 49 50 49 54 56 58 62 63 64 64 63 63 62 62 62 62 62 61 61 60 58 60 59 57 55 54 51 55 59 60 59
38 37 37 37 38 40 39 40 41 42 43 45 47 51 51 56 55 57 61 63 63 63 63 62 62 62 62 62 62 61 61 61 59 59 58 57 56 56 54 52 54 58 59
37 36 36 36 37 39 39 38 39 40 42 44 46 50 54 54 55 56 60 62 63 62 63 63 63 62 62 61 61 61 60 60 60 60 59 57 55 54 54 53 54 54 56
36 35 34 35 37 38 38 38 38 39 40 42 45 50 55 54 58 57 60 61 61 62 62 62 59 60 61 61 61 61 61 60 60 60 59 58 57 55 55 55 54 54 54
35 34 34 34 36 37 37 37 37 37 39 42 46 50 57 56 60 59 60 60 61 61 62 60 57 56 59 60 61 61 61 60 60 59 59 59 58 58 57 55 54 53 53
33 33 33 34 35 36 37 36 36 37 38 42 45 50 60 60 61 61 61 60 61 60 59 58 59 60 61 61 61 61 60 60 60 59 59 58 58 58 58 57 57 53 51
33 32 32 34 35 35 36 36 36 36 38 41 44 49 60 61 60 61 61 59 59 59 59 59 60 61 61 61 61 60 60 59 59 59 59 59 59 58 58 57 57 56 53
32 32 32 33 34 34 35 34 34 35 36 39 42 47 59 60 60 60 60 60 60 60 60 60 60 59 60 60 60 59 59 58 58 59 59 59 58 58 58 58 58 57 56
31 31 31 32 32 33 33 32 33 34 35 37 40 43 46 53 59 59 59 60 60 60 60 60 59 59 59 59 59 58 58 58 58 58 58 58 58 58 58 58 57 56 55
30 30 31 31 31 31 31 30 32 33 33 35 38 39 40 43 46 57 59 59 58 58 57 57 57 58 59 58 58 59 58 59 58 58 58 58 58 57 57 57 56 55 54
29 29 29 30 30 30 31 30 30 32 32 33 35 36 38 39 40 44 52 57 57 57 57 57 57 57 57 58 57 57 57 57 57 57 57 57 57 57 56 56 55 55 54
29 28 28 28 29 29 29 30 30 30 31 32 32 34 36 37 37 37 39 43 51 56 55 52 51 50 50 46 51 55 57 57 56 53 49 46 45 51 57 55 55 54 53
28 27 27 28 28 28 28 28 29 31 30 30 30 32 33 35 36 35 34 35 36 39 43 44 44 41 38 38 43 49 52 50 49 46 43 41 40 42 50 51 54 54 53
27 27 27 28 28 28 28 28 30 31 29 28 28 30 31 32 33 34 34 33 33 33 34 37 36 35 35 37 40 43 43 41 39 39 39 39 37 38 37 39 38 39 43
26 26 27 27 27 28 28 28 28 29 29 28 28 28 29 29 30 32 32 32 32 31 31 32 34 33 33 34 35 35 36 35 34 34 35 35 35 35 36 36 34 32 33
28 27 28 28 27 27 27 27 26 26 26 27 28 29 28 28 28 28 30 31 31 30 29 30 32 32 32 33 33 33 32 31 31 32 33 32 32 33 34 32 31 29 27
27 27 28 28 27 27 26 25 25 25 26 27 27 28 29 28 28 29 28 29 28 27 27 26 28 30 31 32 32 31 31 29 29 29 30 31 30 31 31 29 27 25 25
27 28 28 26 27 28 27 25 25 25 26 27 27 28 29 29 29 30 30 30 28 27 26 25 25 26 28 29 30 30 29 28 27 27 27 28 28 28 27 26 25 24 25
25 26 24 24 24 24 25 25 25 27 27 27 27 27 28 29 30 30 30 30 30 28 27 26 25 25 26 26 27 27 27 26 25 25 26 27 27 26 25 25 24 23 23
22 21 21 22 22 23 23 24 22 25 26 26 26 26 27 28 28 28 28 29 29 29 28 27 26 26 27 27 26 25 24 24 22 24 24 24 23 23 24 23 22 22 21
20 20 20 20 21 22 22 23 23 20 21 23 23 24 24 25 25 26 26 26 27 26 26 27 26 26 26 27 28 27 27 26 25 25 24 24 24 23 23 23 24 24 22
20 19 19 19 19 19 19 20 21 22 20 18 22 22 22 22 23 23 24 25 25 25 25 25 25 23 22 24 25 26 25 25 25 27 26 25 24 23 22 23 23 24 24
18 17 18 18 19 18 18 19 19 18 18 17 16 19 21 22 21 21 21 21 22 22 22 22 23 22 21 21 21 22 22 24 26 26 24 22 22 22 21 21 20 21 21

GFSMW_sfc_30mbdewp_108.txt.gz
Dewpoint
35 38 41 43 43 44 46 46 46 48 49 49 49 48 49 51 50 54 60 63 65 66 65 65 65 65 64 63 65 64 63 63 63 61 61 61 62 62 62 62 62 61 61
33 37 38 41 42 43 44 44 45 46 46 47 49 49 50 50 52 53 54 60 61 64 65 65 65 65 64 63 64 63 62 62 63 59 58 55 57 59 61 62 61 61 61
34 36 37 39 41 42 43 43 44 44 45 46 47 48 49 49 50 51 50 52 60 62 64 65 66 64 64 62 64 63 62 60 62 60 57 54 52 56 59 60 60 60 60
35 35 37 38 39 41 42 43 43 43 43 45 45 45 46 46 48 50 52 51 60 61 63 65 65 64 63 63 63 63 61 60 60 61 59 57 57 54 53 58 60 60 60
36 36 36 36 37 40 41 42 42 42 42 43 43 42 43 45 47 49 50 53 53 60 62 64 65 64 63 61 62 63 61 60 59 59 59 58 58 57 54 52 55 59 59
36 34 35 36 37 39 40 41 40 40 41 41 41 40 41 42 44 46 48 50 53 56 60 63 64 64 63 63 62 58 61 61 60 60 59 58 57 57 56 54 54 54 57
35 34 34 35 36 37 38 39 39 39 40 39 39 39 40 41 42 44 46 48 52 56 57 60 64 64 63 62 62 61 61 61 61 60 59 59 58 58 57 55 55 54 57
34 34 34 35 35 36 37 38 38 38 38 38 38 38 39 41 43 45 47 49 52 55 58 60 62 63 63 62 62 60 61 60 59 59 60 60 59 59 58 56 55 54 54
31 32 32 34 35 36 37 37 37 36 36 37 37 37 39 41 43 45 47 51 53 55 59 63 63 63 62 62 60 58 58 55 59 56 55 60 60 59 59 58 57 54 52
29 30 32 33 34 35 35 36 36 34 36 36 36 36 38 40 42 45 47 53 56 58 60 62 62 62 62 62 59 58 59 61 61 61 60 59 60 59 59 59 58 56 54
29 30 31 33 33 34 34 34 35 34 34 34 35 36 36 38 40 41 43 45 49 57 59 61 62 61 62 62 61 60 60 60 60 60 59 59 60 59 59 59 58 57 57
29 30 31 31 32 32 32 33 33 33 32 32 34 34 34 36 37 38 41 44 44 51 58 60 60 61 60 60 60 60 59 59 57 56 58 58 59 59 59 59 58 57 57
29 29 29 30 30 31 31 32 32 33 32 31 32 32 32 33 35 36 38 40 41 44 52 57 58 60 59 58 58 58 58 56 55 56 56 58 59 58 58 58 58 58 57
28 28 28 28 29 29 30 31 31 32 32 31 31 31 31 32 33 34 36 37 38 39 41 51 58 59 59 59 57 56 55 54 55 57 57 58 58 57 58 58 57 57 57
27 27 27 27 28 28 29 30 30 31 31 30 30 30 31 31 31 32 33 34 36 36 36 38 41 43 47 47 55 58 56 53 53 57 55 51 49 48 49 55 57 57 56
26 26 26 27 28 28 29 29 30 30 30 30 30 31 31 31 30 30 30 30 32 33 34 33 35 36 37 36 44 58 58 57 55 51 47 44 43 42 41 42 45 47 54
25 25 26 27 27 30 30 29 29 30 31 30 30 30 31 31 31 30 29 28 28 29 30 32 32 31 32 34 37 46 45 43 41 42 42 41 39 40 41 38 38 37 37
25 25 27 28 29 31 30 30 28 28 30 29 29 31 31 31 31 30 29 28 27 26 26 28 30 30 31 32 33 35 36 34 33 33 35 36 35 36 38 36 34 32 32
29 28 29 30 30 30 30 30 28 28 28 28 29 30 31 30 31 30 30 30 28 26 25 26 26 27 29 31 32 32 31 30 29 30 31 31 32 34 36 34 32 30 30
29 29 29 30 30 31 31 29 27 27 28 28 28 29 31 29 29 30 30 31 31 29 28 26 26 27 26 29 30 30 29 27 27 28 28 29 30 31 31 31 30 28 26
29 30 30 29 29 31 31 30 27 28 29 28 28 27 28 28 28 28 30 30 30 29 28 27 28 28 28 27 28 27 26 26 25 25 26 27 28 29 29 27 26 25 25
29 29 28 27 26 22 23 24 27 29 30 29 28 27 25 26 26 25 25 26 27 26 27 26 25 26 27 29 29 28 26 25 24 24 26 27 27 27 26 26 26 26 25
27 26 21 18 18 19 19 19 20 22 23 26 26 27 26 24 24 23 22 23 23 24 22 23 22 23 25 26 28 29 29 29 26 27 27 27 26 25 26 26 24 24 23
20 19 17 16 16 17 18 19 19 18 19 20 21 23 24 26 23 22 21 20 21 21 21 20 20 20 21 23 25 27 28 29 29 29 28 28 27 27 27 26 26 24 23
21 19 18 17 16 16 18 18 20 19 19 20 20 21 21 21 24 22 21 20 19 19 19 20 20 19 19 20 21 24 26 28 29 29 27 26 25 24 24 25 25 26 26
19 19 19 18 17 16 18 21 21 21 20 20 20 20 21 21 21 21 23 22 21 19 18 18 18 20 19 20 19 20 21 24 25 24 23 23 23 22 23 22 22 23 24

GFSMW_sfc_30mbdewp_111.txt.gz
Dewpoint
41 43 43 43 44 44 44 45 45 46 46 47 47 47 48 49 50 50 51 53 61 65 66 65 65 65 65 63 64 64 64 63 63 61 61 61 62 62 62 62 62 62 61
40 41 42 42 43 43 44 44 44 44 45 46 46 47 47 49 49 51 51 51 52 54 65 66 65 66 65 64 63 64 63 62 63 60 59 57 58 60 62 62 62 61 61
38 39 39 41 42 42 43 43 43 42 42 43 44 44 44 45 46 47 48 49 51 53 55 63 65 65 65 63 64 63 62 61 62 60 57 54 52 55 58 61 61 61 60
37 37 38 39 40 41 42 41 41 41 41 42 42 41 41 41 43 44 46 47 48 50 53 56 62 64 65 63 62 59 56 53 57 61 59 56 55 52 53 58 60 60 59
35 36 36 38 39 40 40 40 40 40 40 40 40 39 39 40 41 42 43 45 47 49 51 55 59 60 64 63 59 56 57 59 59 54 58 58 57 55 53 52 56 59 59
35 35 36 37 37 38 39 38 38 38 39 38 38 38 38 38 39 40 41 43 45 47 50 53 58 60 60 62 61 59 59 60 59 58 58 56 56 56 56 52 53 55 58
34 35 35 36 36 37 37 37 36 35 36 37 37 37 37 38 39 40 42 43 45 47 49 52 56 59 59 59 61 61 61 60 60 60 59 59 58 56 56 54 54 54 56
33 34 35 35 35 36 37 36 35 34 35 36 36 36 37 38 38 41 42 43 44 47 49 51 54 56 60 61 61 60 59 59 60 59 59 59 58 58 57 56 54 53 54
32 33 34 34 34 34 35 34 35 34 33 34 35 35 36 37 37 39 41 43 46 48 51 51 53 52 55 56 60 58 59 57 55 55 60 59 59 59 58 57 55 54 52
31 32 33 33 33 33 34 34 33 34 33 33 33 34 35 35 36 38 40 41 43 46 49 54 54 56 51 54 59 59 60 59 57 55 57 58 59 59 59 58 57 55 53
30 31 31 31 32 32 32 33 32 33 33 32 32 33 33 34 35 36 37 39 40 43 46 49 58 58 58 58 58 60 59 58 57 58 57 55 57 59 59 58 58 56 55
29 29 29 30 30 30 30 31 32 32 32 32 32 32 32 33 33 34 35 37 38 40 42 47 54 58 57 55 59 59 58 58 58 58 57 55 58 59 59 58 58 57 57
28 28 28 28 29 29 30 30 31 31 31 31 31 31 32 32 31 32 33 34 35 37 38 42 44 50 57 58 60 60 60 59 59 59 58 58 58 58 58 58 57 57 57
27 27 27 27 28 28 29 30 30 30 30 30 31 31 32 32 31 31 30 31 32 33 35 37 39 41 43 46 49 59 59 57 56 57 56 54 53 56 58 58 58 57 57
26 26 26 27 27 28 29 29 29 30 30 30 30 30 31 32 30 29 29 28 29 30 32 33 34 35 36 35 38 46 57 55 55 55 54 53 53 56 56 57 57 57 56
25 25 26 25 27 27 29 29 29 29 29 30 30 31 31 31 31 29 28 27 27 27 28 29 31 32 33 34 34 41 56 54 53 50 45 44 43 44 46 48 47 50 56
24 25 27 27 28 29 30 29 30 31 30 30 30 31 30 31 31 30 29 28 27 26 26 27 28 29 31 33 33 33 39 42 42 43 42 40 40 41 39 38 38 37 38
25 26 27 28 29 30 30 30 30 30 29 28 29 30 29 29 30 30 30 30 29 28 27 27 26 27 29 32 32 31 31 30 31 32 34 35 35 38 39 37 35 33 32
28 27 29 29 30 30 31 31 29 29 28 27 28 29 28 27 27 27 29 30 28 27 27 27 27 26 27 29 30 31 28 28 27 29 31 31 32 35 36 35 33 31 30
28 28 29 29 29 30 31 30 29 29 28 27 25 26 26 25 25 25 27 28 28 27 26 26 26 27 28 30 28 27 27 25 26 27 28 30 30 31 31 31 30 28 26
29 29 29 28 28 29 28 28 29 28 29 29 27 25 25 23 22 23 24 24 24 23 24 24 24 25 27 28 30 28 25 25 24 25 26 28 29 29 29 27 26 25 26
28 28 26 26 24 20 20 21 23 24 26 27 28 25 24 24 23 21 20 22 22 21 19 20 21 22 24 27 28 30 29 28 26 25 26 27 28 28 27 26 26 26 25
27 25 19 17 18 19 19 20 20 22 22 22 24 26 25 23 23 21 20 17 18 19 20 18 18 20 22 24 25 28 30 29 27 28 28 28 28 27 26 25 25 24 23
20 18 17 16 17 19 21 21 21 20 21 20 21 22 22 23 22 21 20 19 18 17 18 18 19 19 21 22 23 25 27 27 28 28 27 27 26 26 25 25 26 24 23
20 19 19 18 17 18 20 21 23 22 21 22 21 21 21 22 22 23 23 22 21 19 20 20 19 20 21 22 20 21 23 24 23 23 23 22 23 22 22 23 24 25 25
19 18 18 17 16 17 17 19 21 23 21 22 22 21 21 22 22 21 22 25 21 17 15 18 21 21 19 21 19 18 18 19 19 18 18 19 19 20 21 21 21 23 23

GFSMW_sfc_30mbdewp_117.txt.gz
Dewpoint
43 43 43 43 42 41 41 41 41 41 42 42 42 43 41 44 43 46 45 46 48 49 49 51 52 55 62 64 63 63 62 62 64 62 61 61 62 63 63 63 63 62 61
42 41 41 40 40 40 40 40 40 40 40 41 41 41 40 43 42 42 42 44 44 45 47 48 49 52 52 55 64 63 62 62 63 59 59 57 58 60 62 63 62 62 62
40 40 38 38 38 38 38 38 38 38 38 39 39 39 39 39 40 39 40 42 43 44 45 46 49 50 51 51 54 62 63 61 61 62 58 54 55 56 59 61 61 62 62
38 38 37 37 37 35 35 35 35 36 37 37 37 38 38 37 38 38 40 41 42 44 45 46 47 48 50 52 53 57 62 62 59 57 58 55 55 52 52 57 59 60 61
38 37 37 36 35 36 35 34 33 34 35 35 36 36 36 37 38 38 38 40 42 43 44 46 46 47 48 50 52 53 56 62 61 57 55 55 54 54 50 49 53 59 61
36 36 37 36 35 33 33 34 33 33 34 34 35 35 35 36 36 37 37 38 39 41 43 45 46 47 48 50 51 52 56 59 60 58 56 54 53 54 52 50 49 51 55
36 35 33 33 33 32 32 33 33 33 33 33 33 34 34 35 35 36 36 37 38 40 41 42 43 45 47 49 50 51 53 57 59 57 56 56 54 54 54 52 51 52 55
33 33 34 32 32 32 32 32 32 32 33 33 33 33 34 34 35 35 35 36 37 38 39 40 41 43 45 47 49 51 52 54 59 57 56 55 55 56 55 54 52 51 53
32 32 32 33 31 31 31 31 31 31 32 32 33 33 33 34 34 34 34 34 35 36 37 38 40 41 43 45 48 52 52 53 57 58 57 56 56 56 56 56 54 52 50
32 32 32 32 32 32 32 30 31 31 31 31 32 32 32 33 32 33 32 32 33 34 35 36 37 39 41 44 45 48 53 53 57 58 57 57 57 56 56 57 56 55 51
31 30 30 31 31 31 31 30 30 30 30 31 31 32 32 31 30 30 30 30 31 32 32 33 35 36 37 39 40 42 53 53 54 57 57 57 57 56 57 57 57 56 55
30 30 30 29 28 29 29 29 29 29 29 31 31 31 31 31 30 29 29 29 29 30 30 31 32 33 34 36 37 38 42 53 54 56 56 55 55 55 56 57 56 56 56
26 26 26 26 27 27 28 28 28 28 29 30 30 30 30 30 30 29 29 29 29 29 29 30 30 31 33 33 34 35 38 44 54 55 56 55 56 56 57 57 57 56 56
25 24 25 25 26 27 27 27 28 28 29 29 29 29 29 30 30 29 28 27 27 27 27 29 29 30 31 31 33 34 39 45 50 55 57 57 56 55 55 56 57 56 56
24 24 24 26 26 27 27 27 27 28 28 28 28 28 28 28 28 28 28 27 27 26 26 27 28 29 30 30 31 33 34 36 38 39 43 50 50 55 55 56 56 55 55
23 24 24 26 26 27 28 28 28 28 28 27 27 26 26 26 26 27 26 27 25 25 25 25 26 28 30 31 30 31 31 31 32 33 34 36 37 44 51 54 54 54 52
23 23 24 26 27 29 29 28 29 26 24 24 24 23 23 23 24 24 24 24 24 24 24 24 25 26 29 31 30 29 29 29 30 30 32 32 33 34 39 39 41 44 46
24 23 25 24 27 28 30 30 30 28 24 24 24 23 21 20 20 21 22 22 21 22 22 23 24 25 27 31 30 29 28 28 28 29 29 31 31 32 35 36 35 33 32
26 26 27 26 27 27 28 30 29 29 25 24 24 24 22 20 19 18 19 20 21 20 21 22 23 23 25 29 30 28 27 27 27 28 28 29 29 31 32 31 33 32 30
27 25 25 24 24 26 27 26 26 25 27 24 24 23 23 21 20 19 19 19 19 20 21 22 23 22 23 25 27 28 27 25 25 26 27 28 29 29 29 27 27 27 27
25 25 24 23 24 25 24 23 22 23 25 26 24 23 23 21 21 21 20 20 20 19 19 20 22 22 21 22 24 24 24 24 23 24 24 26 28 28 27 27 26 25 26
23 23 21 22 22 22 22 22 23 22 23 23 23 23 23 23 22 19 18 19 19 19 19 18 19 21 22 20 20 21 22 22 22 22 23 25 25 26 27 26 27 26 25
20 18 18 19 20 21 21 21 22 21 21 22 22 23 23 23 23 19 16 18 19 19 19 17 17 18 20 21 20 19 19 20 20 21 20 21 22 22 23 25 25 25 24
17 17 18 18 18 19 19 20 21 22 22 21 21 21 22 22 23 19 16 16 18 18 19 16 16 16 17 19 20 19 18 18 18 18 18 18 18 18 20 21 22 23 24
17 17 17 17 17 17 17 18 20 20 19 20 20 19 19 19 20 21 16 15 15 15 16 18 15 15 14 15 16 16 17 17 16 15 15 15 15 16 16 17 19 20 21
14 14 15 14 14 14 15 17 19 19 18 18 16 17 18 17 17 17 14 15 13 13 12 12 12 13 11 11 12 14 14 13 13 11 11 11 12 13 14 15 15 17 18

GFSMW_sfc_30mbdewp_123.txt.gz
Dewpoint
37 36 36 36 35 35 35 35 36 37 38 39 39 41 42 43 42 42 44 44 46 47 48 47 49 50 51 52 53 55 60 63 64 63 62 60 62 63 63 65 65 65 65
35 34 33 34 35 35 36 35 35 35 36 37 39 39 40 42 42 41 42 42 44 46 46 47 48 49 49 50 51 52 54 62 62 60 59 56 58 59 61 63 64 63 64
35 34 33 33 34 34 34 35 35 35 35 36 37 37 38 38 39 39 40 41 42 43 45 46 46 47 48 48 48 51 52 54 61 61 58 54 53 54 56 58 60 62 64
35 35 35 34 33 34 35 34 34 35 36 36 35 36 35 35 37 38 38 39 41 42 42 44 45 46 47 48 48 49 50 52 53 58 61 60 58 55 55 58 60 61 61
37 36 36 36 35 34 34 34 34 34 35 35 36 35 34 35 35 36 37 37 39 39 40 41 42 43 44 46 47 49 50 50 50 52 57 60 60 59 56 54 57 59 60
36 35 35 35 35 35 33 33 33 33 34 34 35 35 34 34 34 34 34 35 36 37 37 38 39 40 41 42 44 45 47 49 51 51 51 54 56 56 56 54 54 56 58
35 34 34 33 34 33 32 33 33 33 33 33 33 33 33 33 33 32 33 33 33 34 35 35 37 38 39 40 42 43 45 47 48 50 51 51 53 56 54 53 53 53 54
34 33 33 32 32 32 31 31 31 31 32 33 33 33 33 33 32 32 32 32 32 33 33 34 35 36 37 38 39 41 43 45 47 49 51 52 52 54 56 55 54 53 53
33 32 31 31 31 31 31 31 31 31 31 32 32 31 31 32 32 31 31 31 32 32 32 33 33 34 35 36 37 38 40 41 42 45 47 51 52 54 55 56 55 54 51
31 30 29 30 30 29 30 30 30 30 31 31 31 31 31 31 30 30 29 30 30 30 31 32 32 33 33 34 35 36 37 38 40 41 44 48 53 54 55 57 56 56 54
30 28 28 28 29 29 29 30 30 30 30 30 30 30 30 30 30 29 28 28 29 29 29 30 32 32 32 33 33 34 36 37 39 41 43 46 50 53 55 56 56 56 55
27 26 26 26 27 27 28 28 29 29 30 30 29 29 29 29 28 28 27 27 27 27 28 29 31 31 31 32 32 33 34 35 35 37 39 41 40 47 54 55 56 56 56
25 24 25 26 26 27 28 28 28 29 29 28 28 28 27 27 27 26 26 26 26 26 26 28 29 31 31 30 30 30 30 31 32 33 34 35 35 35 37 40 53 55 55
24 24 25 25 26 26 27 27 27 26 26 25 24 24 24 25 25 25 24 25 25 25 25 26 27 30 30 30 29 29 29 29 29 30 31 31 31 32 33 37 40 45 54
23 24 24 25 25 25 25 25 25 24 23 22 22 21 21 22 22 22 22 22 23 24 24 24 25 28 28 29 29 28 28 27 27 28 28 29 30 31 32 35 36 37 41
23 24 24 24 25 25 25 25 26 24 22 21 20 20 20 20 20 20 21 21 21 22 21 22 22 24 25 26 26 27 27 26 26 26 27 27 28 29 30 33 34 33 31
23 24 24 26 26 27 26 25 25 22 22 21 20 20 21 20 21 20 20 20 21 21 21 21 21 22 23 23 24 25 26 25 25 25 26 26 27 28 28 27 30 32 30
24 25 26 25 26 28 28 28 24 22 21 21 20 20 20 20 20 20 20 20 20 20 20 20 21 21 22 20 21 23 25 25 25 24 26 26 27 28 27 26 26 27 27
26 26 26 25 27 27 27 26 25 21 20 21 20 20 19 19 19 20 20 19 19 18 19 19 19 20 21 19 19 20 22 22 23 23 24 24 26 26 26 25 24 25 25
25 24 25 25 25 25 25 24 23 22 21 21 21 20 18 19 19 20 20 20 17 17 16 16 17 18 19 17 17 19 19 18 20 20 21 21 22 23 24 24 23 22 24
24 24 24 23 23 23 23 23 22 23 23 22 22 20 19 17 18 18 19 19 16 15 15 14 16 16 17 17 15 15 17 17 16 17 18 20 18 19 20 21 22 22 24
24 23 23 23 23 22 21 22 22 23 23 23 22 21 18 17 17 17 17 17 15 14 14 13 14 16 16 14 14 13 12 13 15 15 15 16 14 15 16 18 17 18 20
23 22 21 20 20 20 20 20 21 21 21 21 21 19 18 18 16 15 15 14 14 13 11 12 12 13 15 15 12 12 10 10 11 12 10 11 11 11 13 13 14 16 16
20 20 19 18 19 19 20 20 19 18 17 16 16 17 15 14 15 13 12 12 12 12 11 11 12 11 12 12 12 13 12 8 8 8 8 8 8 9 9 11 12 13 14
19 18 17 17 17 17 18 19 18 15 15 15 15 15 14 13 12 14 13 12 13 12 12 12 11 11 11 10 9 9 10 9 6 6 6 6 6 6 6 6 7 10 11
18 17 16 16 16 15 16 17 17 15 14 14 14 14 13 13 11 9 10 13 12 12 10 10 10 11 9 8 6 6 5 4 3 4 5 5 5 4 2 2 3 5 7

GFSMW_sfc_30mbdewp_126.txt.gz
Dewpoint
37 36 36 36 37 38 37 37 37 37 38 39 40 41 42 44 44 43 45 45 47 48 49 49 49 50 50 52 54 55 57 61 63 63 63 64 65 63 64 62 59 62 63
37 36 35 35 36 36 36 36 36 37 37 37 38 40 42 42 42 42 43 43 44 46 46 47 48 48 49 50 51 52 53 54 60 61 61 57 59 61 60 59 59 60 62
36 35 35 35 35 36 36 36 36 36 37 38 38 38 38 38 38 39 40 41 42 43 43 45 46 47 47 48 48 49 51 51 52 59 59 56 55 54 56 57 59 60 61
35 35 36 36 36 36 36 37 36 36 36 38 37 38 37 36 37 38 38 39 40 41 41 42 42 44 45 46 47 48 50 50 50 51 59 60 55 51 50 56 58 60 60
37 36 36 35 35 35 34 35 36 35 36 37 37 37 37 36 36 36 37 37 38 38 39 39 40 41 42 43 44 45 46 48 50 50 50 53 57 58 56 51 54 57 58
35 35 35 35 35 35 35 35 35 34 36 35 35 35 35 36 35 35 34 34 35 36 37 37 38 39 40 41 42 43 44 46 47 49 51 50 51 51 53 53 51 50 54
35 34 34 34 34 34 34 34 34 33 34 34 34 34 34 34 33 34 33 33 33 34 34 35 36 37 38 39 40 41 42 44 46 47 48 50 51 51 52 53 52 49 49
35 34 33 33 32 32 32 32 32 32 33 33 33 33 33 33 33 33 32 33 33 33 33 34 35 36 36 37 38 39 41 43 43 44 45 48 50 51 52 50 52 51 49
34 33 33 32 31 31 31 31 31 31 32 32 32 32 32 32 31 31 31 31 32 31 32 33 34 34 34 35 36 37 38 39 41 42 43 44 46 49 52 52 53 53 51
33 32 31 30 30 30 31 31 30 31 31 31 31 31 31 30 31 30 30 30 30 30 31 32 32 32 33 33 34 35 37 37 38 40 42 43 44 46 48 53 53 54 53
33 31 29 28 29 30 30 30 30 30 31 31 30 30 30 30 29 29 29 29 30 30 30 30 31 31 31 32 32 32 33 33 34 35 37 39 38 39 41 48 54 54 54
31 28 27 27 28 28 28 29 29 30 30 30 30 30 29 29 29 29 28 28 29 29 28 29 30 30 30 30 31 30 31 31 31 31 33 33 33 34 36 37 41 46 55
28 27 26 26 26 27 27 28 29 28 28 28 28 28 27 27 27 27 27 27 28 27 27 27 28 28 29 29 30 30 29 29 30 30 30 30 31 31 33 35 38 41 43
27 26 25 26 26 26 27 27 28 27 26 25 24 25 24 24 24 24 24 25 25 25 25 26 26 27 27 27 28 29 29 28 29 30 29 29 30 31 31 34 35 36 37
26 25 25 25 25 26 26 27 27 26 25 24 23 23 21 22 22 22 22 23 23 22 22 23 23 24 23 25 26 28 28 27 27 28 28 29 29 30 29 30 32 31 32
25 25 24 25 25 25 25 26 25 23 22 21 20 21 21 21 21 22 22 22 21 22 21 22 22 21 19 21 24 26 26 26 25 25 26 27 27 28 29 28 28 29 28
27 24 25 25 26 25 26 25 24 22 20 19 19 20 22 21 21 21 21 21 21 21 21 21 21 21 20 20 21 23 25 25 25 24 24 24 25 26 28 29 29 27 28
26 25 26 25 26 27 27 25 22 21 20 20 19 20 20 21 21 20 20 21 21 21 20 19 20 20 20 18 19 21 23 24 23 24 23 24 24 24 25 25 26 28 28
27 28 26 26 27 27 26 25 22 20 19 20 20 20 20 20 20 20 20 20 20 19 19 18 18 18 18 16 16 19 22 22 21 22 22 20 21 21 21 23 24 24 26
28 27 27 27 27 27 26 24 22 21 21 21 20 18 19 19 19 20 19 19 19 19 18 18 17 17 17 15 14 17 17 18 17 18 19 16 17 17 18 21 21 20 22
26 26 26 25 25 26 25 23 22 22 22 21 20 19 18 18 19 19 19 18 18 17 17 17 17 16 16 15 14 12 14 16 15 14 15 15 13 14 15 16 18 18 21
25 25 24 24 23 22 22 22 22 23 23 21 20 19 19 18 19 18 18 18 17 16 16 15 16 16 16 14 13 12 11 12 13 12 13 13 10 11 11 14 14 15 17
24 24 23 22 20 18 18 19 20 21 21 20 19 18 18 18 16 16 16 15 16 14 13 13 13 13 13 14 12 11 11 10 12 11 9 9 9 9 10 9 10 13 16
23 22 21 20 19 18 17 17 17 16 15 14 15 14 13 13 13 11 11 12 12 13 12 12 12 12 11 11 11 11 11 10 10 10 10 9 8 8 9 10 11 12 12
22 20 20 19 18 16 17 16 14 13 12 12 12 12 11 10 11 12 13 11 12 11 11 12 12 10 10 9 9 9 9 8 8 9 9 9 8 8 8 7 8 8 9
21 19 19 17 16 16 16 15 13 12 10 10 11 11 10 9 7 6 10 11 11 10 9 9 9 11 8 7 7 6 6 6 5 7 7 6 6 4 4 4 4 6 5

GFSMW_sfc_30mbdewp_129.txt.gz
Dewpoint
37 37 38 38 38 39 38 38 39 40 39 38 39 41 42 44 45 45 46 46 47 48 48 48 49 49 49 51 52 53 53 54 58 61 62 63 64 63 65 63 62 62 61
36 37 37 38 38 38 38 38 38 38 39 39 40 39 41 42 42 42 43 44 44 45 44 45 46 47 47 48 50 50 50 50 51 55 57 56 58 63 63 62 61 61 57
35 36 37 38 38 38 38 38 38 38 39 40 39 40 39 38 38 39 40 41 43 43 43 43 43 44 45 45 47 48 49 49 50 51 53 53 51 53 61 62 62 61 59
35 36 36 37 36 37 38 37 38 37 38 39 38 39 38 38 39 38 39 39 41 41 41 41 41 41 42 43 44 45 46 47 47 49 49 51 54 52 53 58 61 61 60
36 36 36 36 36 37 37 37 37 37 37 37 37 37 37 36 37 38 38 38 38 39 39 39 39 40 40 41 42 43 44 45 46 47 48 50 49 51 53 52 54 58 59
36 36 36 36 36 36 36 36 36 35 36 36 36 36 36 35 35 35 35 36 36 37 37 37 38 38 39 39 40 41 42 43 45 46 47 48 48 49 49 50 52 53 54
36 35 35 35 34 34 34 33 34 34 34 35 35 34 34 34 34 33 33 33 35 34 35 36 36 36 37 38 38 39 40 42 43 45 45 46 47 49 49 50 49 50 52
36 36 34 34 32 32 33 33 32 32 33 33 33 33 33 33 32 32 32 32 33 33 34 35 35 35 35 36 36 37 39 40 41 42 43 44 44 46 47 48 49 49 50
36 35 35 33 31 31 32 33 32 32 32 32 32 32 32 32 31 31 32 32 32 31 32 33 34 33 33 34 35 36 37 36 37 38 39 41 43 44 45 46 48 49 46
35 35 33 31 31 31 31 32 32 31 32 32 32 31 31 31 31 31 30 31 31 31 31 31 32 32 33 33 33 33 33 34 34 34 35 37 35 37 39 40 42 45 50
35 34 32 30 30 30 30 31 31 31 31 31 31 31 31 31 30 30 30 30 30 30 30 30 31 31 31 32 32 31 31 31 31 32 32 32 32 34 35 36 38 40 44
35 33 29 29 29 29 29 30 31 30 30 31 31 30 30 30 30 29 29 30 31 30 29 30 30 30 30 30 31 31 31 30 30 30 30 30 30 31 32 33 36 38 40
34 31 29 28 27 28 29 29 30 29 29 29 29 28 27 26 25 26 26 26 26 26 27 27 27 26 27 28 30 30 30 30 30 31 30 29 29 30 30 32 32 34 34
32 30 28 27 27 28 28 28 29 29 28 27 27 26 24 24 24 24 24 25 24 23 24 25 24 22 23 26 28 28 28 28 28 29 29 29 29 29 30 30 30 30 31
31 29 28 26 26 27 27 28 28 28 27 27 26 24 23 23 24 24 24 24 23 22 22 22 22 20 18 22 25 26 26 25 25 26 26 26 27 27 30 30 29 28 28
30 28 27 26 26 26 27 27 26 24 23 22 22 22 22 22 22 22 23 22 21 21 21 21 20 19 16 20 23 24 24 24 22 21 23 23 24 25 28 28 29 30 27
30 27 26 26 26 26 27 26 25 22 21 20 20 22 23 22 22 22 22 22 21 21 21 21 21 19 17 18 22 24 24 23 22 21 20 20 20 22 25 26 27 28 28
29 29 29 27 27 27 26 26 24 22 20 19 20 20 21 21 21 21 22 23 23 22 21 19 19 19 18 16 18 22 23 24 22 22 18 19 19 19 20 21 22 25 26
33 33 31 28 28 28 27 24 22 20 19 20 20 20 20 21 21 21 21 22 21 21 21 20 19 18 18 16 15 19 22 22 22 21 19 17 18 16 17 19 20 20 23
33 32 31 30 29 29 27 23 21 21 22 21 19 19 20 21 21 21 21 22 22 21 21 20 19 18 18 15 15 16 18 18 17 18 18 14 14 13 14 17 18 17 20
31 31 29 28 29 29 28 25 23 22 21 20 20 20 19 21 21 21 22 22 20 20 20 20 20 19 19 17 14 13 15 17 15 14 15 16 12 13 13 14 15 16 19
29 28 27 27 26 25 23 23 23 24 22 21 20 20 20 19 20 21 21 21 20 18 18 18 18 19 18 14 14 13 12 13 14 14 14 15 12 12 12 13 12 13 16
27 26 25 23 21 20 19 19 21 21 21 20 20 19 19 19 17 17 17 17 18 17 15 15 15 14 15 15 12 12 12 12 15 15 13 11 11 11 13 11 11 14 14
25 24 23 21 19 18 17 18 18 17 16 16 15 13 13 14 13 12 13 12 13 13 14 14 12 12 11 11 12 13 13 12 12 14 14 13 12 11 12 13 13 14 13
25 22 21 20 18 16 16 15 13 12 12 11 11 11 11 12 13 12 14 12 12 11 11 12 15 10 10 10 10 10 11 12 11 13 12 12 12 11 11 11 10 12 11
24 22 22 20 16 15 14 12 12 11 10 10 10 10 9 8 7 9 12 11 10 9 9 9 9 12 9 8 8 8 8 7 8 9 10 11 11 9 8 8 8 9 8

GFSMW_sfc_30mbdewp_132.txt.gz
Dewpoint
37 37 38 39 39 40 40 40 40 41 42 41 41 41 42 44 43 43 44 46 46 46 46 46 46 47 47 48 49 49 49 50 52 53 55 59 61 63 64 64 64 62 62
36 37 38 39 39 39 40 39 39 40 41 40 41 42 41 43 42 43 43 44 44 45 43 43 44 43 45 45 45 47 46 48 49 50 51 52 54 61 63 64 64 62 60
35 36 38 38 38 38 39 38 38 39 40 40 40 40 41 41 41 41 42 42 43 43 42 42 42 42 43 43 44 44 44 44 45 48 49 49 49 50 53 58 62 62 61
35 36 36 37 37 38 38 38 38 38 38 39 38 38 38 37 38 39 39 40 41 41 40 40 41 40 40 41 41 42 42 44 43 45 47 47 49 49 48 52 54 61 62
36 36 36 36 37 37 38 38 37 37 37 37 37 37 37 37 36 36 37 37 38 39 38 38 38 38 38 39 40 40 41 42 43 44 45 46 47 47 48 48 50 52 56
36 36 36 36 35 36 36 35 35 35 36 36 36 35 35 35 35 34 34 34 35 36 36 36 37 37 37 37 37 39 39 41 42 43 44 44 45 46 47 46 46 48 49
36 35 35 34 34 34 34 33 33 33 34 34 34 33 33 33 33 33 33 32 33 32 34 35 36 35 36 36 36 37 38 39 39 40 41 42 43 45 45 45 45 46 48
37 36 35 34 32 33 33 33 32 33 33 33 33 33 32 32 33 32 32 32 32 32 33 34 34 34 35 35 36 37 37 36 37 37 36 38 40 40 43 43 43 43 44
37 36 35 34 31 32 33 33 32 32 32 32 32 32 32 32 32 32 32 32 33 31 32 33 34 34 34 34 34 34 34 34 34 34 35 34 34 35 37 38 40 41 39
37 36 35 32 31 32 33 33 32 32 32 32 32 32 31 31 31 31 31 32 31 31 31 32 32 32 32 34 33 33 33 32 32 32 32 32 32 33 35 35 37 38 39
36 35 34 32 31 31 32 32 32 31 31 32 32 31 31 31 31 30 30 31 31 31 31 31 30 30 30 32 33 32 32 31 31 32 31 30 32 32 32 33 36 36 37
36 35 33 30 30 30 30 31 31 31 31 31 31 30 30 29 29 29 28 29 28 28 28 28 27 27 27 29 31 31 31 31 31 32 29 29 30 31 31 32 31 32 34
35 34 31 29 29 29 30 30 30 30 30 29 29 28 27 26 26 26 27 26 26 26 27 25 24 22 25 26 28 29 29 28 28 29 28 27 28 29 30 30 29 30 31
35 34 30 29 28 29 29 30 30 30 29 29 28 27 26 25 26 26 26 25 24 23 24 23 21 20 21 24 26 27 26 25 25 26 27 25 25 27 30 29 28 28 28
34 33 30 28 28 28 28 29 29 29 28 28 26 25 24 25 25 25 25 25 24 23 23 22 20 18 18 23 25 25 23 22 21 21 22 21 22 23 27 29 29 27 27
33 32 30 28 27 27 28 28 27 26 25 23 24 24 23 23 24 24 24 23 22 22 22 22 20 18 17 21 24 25 24 23 21 19 20 18 19 20 22 23 26 28 26
33 31 29 27 27 27 27 27 26 23 22 22 22 23 23 23 23 23 24 23 22 22 22 21 21 19 18 19 22 24 25 23 22 18 18 17 17 18 20 20 21 23 24
32 31 29 28 29 29 28 27 24 22 21 21 21 21 22 23 23 23 24 24 24 23 22 21 20 20 18 16 19 22 23 23 21 20 16 17 17 16 17 18 18 19 22
34 31 31 32 32 30 28 26 23 21 20 21 21 21 23 23 23 23 23 24 24 23 22 22 21 18 18 16 16 18 21 20 19 19 17 15 16 15 16 15 16 15 18
34 33 33 32 31 31 27 24 22 21 22 21 22 22 23 23 22 23 23 24 24 23 24 22 20 18 17 15 15 15 18 17 16 16 17 15 14 14 14 15 15 13 16
33 32 31 30 31 30 28 25 24 23 22 22 21 21 22 23 23 23 24 23 23 22 22 23 20 18 16 15 14 14 15 18 16 15 15 16 13 13 13 14 13 13 15
31 30 29 29 30 27 25 25 24 24 22 21 22 22 21 21 23 24 24 23 22 20 20 20 19 17 16 13 13 13 13 14 17 16 16 15 12 11 12 12 11 11 13
29 30 29 28 27 25 23 21 23 24 22 22 21 21 21 20 20 19 19 19 20 19 18 17 16 15 14 14 12 12 12 13 16 15 12 11 11 11 13 10 11 11 10
28 27 26 25 23 21 20 20 20 19 19 19 19 19 17 16 16 15 14 14 15 15 17 16 14 13 13 13 14 14 14 14 14 16 15 14 13 12 12 11 11 11 10
26 26 24 21 20 18 18 19 19 17 16 15 14 14 15 13 14 16 14 12 13 12 12 15 15 12 11 11 10 12 13 12 12 14 13 12 11 10 10 9 9 10 9
28 26 23 21 18 17 16 15 14 13 13 13 13 13 12 15 13 11 12 12 12 11 11 10 10 12 9 9 9 11 11 9 9 11 11 10 9 8 8 7 8 8 8

GFSMW_sfc_30mbdewp_135.txt.gz
Dewpoint
38 39 39 40 40 40 40 39 40 40 40 40 41 41 41 43 43 43 43 44 45 43 43 43 43 43 44 44 45 45 45 47 47 50 49 50 52 57 62 63 63 63 63
37 38 40 39 39 39 39 39 39 39 39 39 40 40 42 42 43 43 43 43 43 42 40 41 41 41 42 43 43 42 42 43 45 46 48 49 49 50 52 57 62 64 63
36 38 38 37 38 38 38 38 38 38 39 38 38 38 39 38 38 38 39 40 41 40 39 39 39 40 40 40 40 41 41 41 42 43 45 46 46 46 48 48 53 54 60
37 37 37 37 37 38 38 38 37 37 37 38 37 36 36 35 37 36 37 37 38 37 37 37 38 38 39 38 39 39 40 41 40 42 44 44 45 45 44 48 48 51 52
36 36 36 37 37 37 37 36 36 36 36 36 35 35 35 34 35 35 34 34 35 35 35 35 37 36 37 37 37 37 38 39 41 42 43 44 44 45 45 44 45 45 47
36 36 37 36 36 36 34 35 35 35 35 34 34 33 33 33 33 33 32 33 33 34 34 34 35 36 36 36 37 37 38 39 40 40 41 42 42 42 43 42 41 43 44
36 36 36 35 35 34 34 34 34 33 34 33 33 33 32 33 32 32 33 32 32 33 33 34 34 35 35 35 36 37 36 36 37 37 37 38 40 40 42 42 42 40 42
36 36 35 34 33 33 33 33 33 33 33 33 33 33 32 32 33 32 33 33 32 32 32 33 34 33 35 34 35 34 34 34 35 34 34 34 34 35 37 38 38 36 40
37 36 35 33 33 33 33 33 32 32 32 32 33 32 32 32 32 32 33 32 31 30 32 32 32 32 33 34 34 33 33 32 33 32 32 32 33 33 34 35 36 36 34
37 36 35 32 33 33 33 32 32 32 32 32 32 32 31 32 32 31 31 31 31 31 31 30 29 29 31 32 34 34 33 33 32 31 30 31 32 32 33 34 35 36 36
37 36 35 32 32 33 32 32 32 31 31 31 32 31 30 31 30 29 29 31 29 29 30 26 26 26 28 29 34 31 31 30 32 29 28 29 30 31 32 32 32 32 32
37 36 32 32 32 32 32 31 31 31 31 31 31 31 29 29 28 29 27 27 26 28 25 23 22 24 26 27 30 29 28 27 28 27 25 25 27 29 30 31 30 30 32
36 35 32 31 31 31 31 31 31 31 31 32 28 27 26 26 26 26 26 26 25 25 22 21 20 22 25 26 27 25 24 23 24 25 22 23 24 27 29 29 28 28 29
36 35 31 30 30 30 30 30 30 30 30 30 27 26 27 26 26 26 25 24 24 24 21 20 19 20 23 26 27 24 23 19 21 22 20 20 22 24 26 27 26 26 26
35 34 30 29 29 30 30 30 30 30 30 28 26 26 25 26 26 25 24 23 23 23 21 19 19 19 22 26 25 23 22 17 16 18 18 18 19 20 22 24 25 25 24
35 34 29 28 28 29 29 30 30 29 27 26 25 25 25 25 25 25 24 23 22 22 22 19 19 18 20 25 24 23 22 18 15 15 17 16 18 17 18 20 22 25 24
35 33 28 28 28 28 29 29 27 25 24 25 25 25 24 24 24 24 23 23 22 21 20 20 19 18 18 22 24 24 22 21 18 17 16 16 17 17 16 16 17 19 22
35 31 29 28 29 29 29 27 24 24 23 23 24 24 24 23 24 24 24 23 22 21 20 18 18 18 17 18 20 21 20 18 17 18 17 17 17 16 15 15 14 15 18
34 31 30 30 30 29 29 26 23 23 23 22 23 24 23 22 22 22 22 23 22 20 20 18 16 15 17 16 16 18 19 16 16 17 17 16 16 15 14 14 13 13 14
32 31 31 31 31 31 30 24 23 22 22 22 23 23 23 21 20 21 22 23 23 22 19 18 17 15 14 16 15 15 18 17 16 16 16 14 14 14 14 13 11 11 12
32 32 31 30 31 30 28 25 23 22 23 24 23 23 22 22 23 23 22 22 22 24 19 16 15 14 14 14 14 14 15 17 17 15 14 15 12 12 13 11 10 10 11
31 31 30 30 32 28 25 23 22 23 23 22 22 22 23 24 24 22 23 23 20 20 18 15 13 13 12 13 13 13 14 15 17 13 13 13 10 10 11 11 9 8 10
29 30 30 30 30 28 24 22 24 22 22 22 21 21 22 23 21 19 18 18 19 18 16 15 12 11 12 12 13 12 11 14 15 13 11 10 10 10 12 9 9 10 8
28 29 29 28 28 25 23 24 23 22 21 21 21 20 20 19 16 15 15 15 15 17 14 13 11 10 10 11 12 13 11 12 13 12 11 11 11 9 9 9 10 10 9
28 28 27 26 25 23 22 23 23 20 20 21 19 17 17 17 15 12 12 12 13 14 16 13 10 8 9 11 12 15 11 12 13 10 9 8 7 7 7 8 7 8 9
27 27 26 24 22 21 21 21 20 20 19 15 15 16 13 14 13 14 14 13 13 13 11 11 10 10 11 10 11 12 10 8 8 7 7 6 6 6 6 6 6 7 6

GFSMW_sfc_30mbdewp_138.txt.gz
Dewpoint
38 40 40 40 39 39 39 39 38 39 39 39 40 41 41 43 41 42 42 43 40 40 40 41 41 41 42 42 42 43 42 44 44 47 44 48 52 54 58 61 62 62 62
38 39 39 38 38 38 39 38 38 38 38 38 39 39 41 39 38 39 39 39 38 38 37 39 39 39 40 40 40 41 41 42 42 42 44 46 46 48 48 52 55 54 59
38 38 38 38 38 38 38 37 37 37 37 37 37 37 37 37 35 36 36 38 37 36 36 36 38 38 39 38 38 39 39 39 41 41 43 42 41 42 46 46 49 50 50
38 37 37 37 37 37 38 37 36 36 36 36 35 35 35 35 35 35 34 35 35 35 35 36 37 36 37 37 37 37 38 39 39 40 42 43 44 41 41 44 45 45 47
37 37 37 37 38 37 37 36 35 35 34 34 34 34 33 33 34 33 33 33 34 34 34 35 35 36 36 36 37 37 38 40 40 40 41 42 43 42 43 40 43 42 45
36 37 37 37 36 35 35 35 34 34 34 33 33 33 33 32 32 33 32 33 33 33 34 34 35 35 35 36 37 37 36 37 38 38 39 39 40 41 41 40 40 39 41
36 36 36 35 34 34 34 34 33 33 33 33 32 33 33 32 31 32 33 32 32 32 33 34 33 34 35 35 35 34 34 34 35 34 35 37 37 37 38 39 39 39 39
36 36 35 34 34 33 33 33 33 33 33 33 32 32 33 33 32 32 32 32 32 32 33 32 32 32 33 35 34 34 33 33 33 32 31 33 33 34 35 35 35 34 37
36 36 35 33 33 33 32 33 32 32 33 33 32 32 32 32 32 32 32 31 32 31 31 29 29 31 32 35 35 35 34 34 32 31 32 32 32 33 33 34 35 34 32
36 36 33 33 33 33 32 32 32 32 32 32 32 32 32 32 31 31 31 29 30 30 26 26 27 28 29 32 34 33 33 33 30 31 30 30 31 33 33 32 32 32 32
36 34 33 33 33 33 32 32 32 32 32 32 32 32 32 30 30 29 30 29 27 26 22 22 25 26 28 30 30 30 29 30 27 27 27 27 29 31 31 30 30 30 32
35 34 32 32 32 32 32 32 31 31 31 32 32 30 30 29 28 27 26 27 24 23 23 21 23 25 27 28 26 24 24 24 24 21 22 23 25 26 29 28 28 28 30
36 34 32 32 32 32 31 31 31 31 31 32 27 27 27 26 26 26 25 25 22 20 20 20 22 24 27 27 25 20 22 22 21 20 21 21 23 24 26 26 26 26 27
36 33 31 31 31 31 31 31 31 32 32 28 27 27 26 26 26 25 24 24 23 20 19 20 20 24 26 25 23 18 16 17 19 19 20 19 20 22 24 23 24 23 25
36 34 31 31 31 31 31 30 31 31 29 28 27 26 26 26 25 24 23 23 23 19 19 19 19 23 26 24 23 18 16 15 16 17 17 19 17 19 20 22 23 23 22
37 37 32 30 30 30 30 30 30 31 28 26 26 26 25 25 24 23 22 21 21 21 20 19 19 22 23 25 22 21 18 17 16 15 17 17 16 16 17 19 20 21 20
38 36 31 30 30 30 30 30 30 27 26 26 25 25 25 24 23 23 21 20 19 19 19 19 20 20 23 21 20 17 18 17 18 18 17 16 16 15 14 14 15 17 18
39 36 30 30 30 31 31 28 26 26 25 25 25 24 24 24 23 22 21 20 18 16 16 17 17 18 19 19 16 15 17 17 17 18 16 17 17 14 12 11 12 13 15
38 33 31 31 31 30 28 26 25 24 24 24 24 24 23 23 23 21 21 21 19 17 16 16 15 16 17 16 17 18 17 15 15 17 17 16 16 13 11 11 11 10 11
33 32 32 31 31 29 25 24 23 23 23 23 24 23 22 21 21 21 20 20 18 17 16 14 14 15 15 16 16 17 16 15 15 15 16 13 14 13 12 10 10 9 10
32 32 31 30 31 27 25 24 23 22 23 24 23 23 22 21 21 21 22 22 18 14 12 12 12 12 14 15 15 16 15 14 13 13 14 13 12 12 11 10 9 8 9
31 31 31 31 29 26 24 24 22 23 23 22 22 22 23 23 23 22 23 22 19 14 11 10 10 11 11 14 14 14 15 14 12 11 12 11 10 10 10 10 9 8 8
30 30 30 29 26 25 23 22 24 24 23 23 22 22 24 24 22 21 21 20 17 15 12 11 10 10 11 11 15 14 15 14 11 12 12 10 9 9 9 8 8 9 7
30 31 30 28 27 26 25 23 22 22 21 21 22 23 19 18 17 17 18 18 17 15 13 10 9 9 10 11 13 11 12 11 9 8 7 9 8 6 6 6 8 7 7
29 29 28 27 27 28 25 22 22 21 20 20 21 20 16 14 14 14 14 15 16 13 10 9 9 9 9 12 15 12 10 9 8 6 5 4 4 4 5 5 5 5 5
29 28 28 27 27 26 24 22 21 20 20 20 18 18 15 9 11 13 14 14 15 14 13 12 10 10 11 12 13 11 10 9 8 6 4 4 3 3 3 3 3 4 4

GFSMW_sfc_30mbdewp_141.txt.gz
Dewpoint
39 39 39 39 39 39 38 38 37 38 38 39 40 40 39 39 39 39 38 38 37 37 37 39 39 40 40 39 40 40 40 42 42 43 42 45 51 51 55 57 59 59 61
39 39 39 38 38 38 38 37 37 37 37 38 38 40 39 37 37 37 38 37 36 36 36 37 38 38 38 38 38 38 38 39 40 41 42 43 43 46 45 50 50 47 54
38 38 38 38 38 38 37 37 36 36 36 36 37 37 37 36 35 34 35 36 36 35 36 36 36 36 37 37 37 37 37 38 39 40 42 40 39 41 44 46 47 45 48
38 38 38 37 37 37 37 36 35 35 35 35 34 34 34 32 33 34 34 34 35 34 35 36 36 36 37 36 37 37 38 39 38 40 41 42 42 41 39 42 46 43 44
38 37 37 37 37 37 36 35 34 34 34 34 34 33 33 33 33 33 33 33 34 34 35 35 35 36 36 36 37 36 36 37 38 38 39 39 40 40 42 38 41 41 42
37 37 37 37 36 36 35 34 33 33 33 33 33 32 32 32 32 32 32 33 32 33 34 34 34 35 35 35 35 35 34 35 35 35 36 36 37 38 39 38 37 37 39
37 37 36 36 35 34 34 33 33 32 32 32 32 32 32 31 32 32 31 31 31 32 31 32 32 33 35 35 34 34 34 33 32 32 32 33 34 34 35 35 36 36 37
37 36 36 35 34 34 33 33 33 32 32 32 32 33 32 32 32 32 31 31 31 31 30 29 31 32 34 35 35 34 34 31 31 30 31 32 33 34 34 33 33 32 35
36 36 36 34 33 33 33 32 32 32 32 32 32 32 32 32 32 32 31 30 31 26 26 27 28 29 32 33 32 31 32 28 29 28 28 29 31 33 34 33 33 32 31
36 36 35 33 33 33 33 32 32 32 32 32 32 32 31 31 31 31 30 28 25 22 23 26 27 28 30 31 30 29 29 25 26 26 26 27 29 31 32 31 32 32 31
36 35 34 33 33 32 32 32 32 32 32 32 31 31 30 30 29 28 27 25 25 23 22 24 26 27 28 27 25 25 25 24 22 23 24 26 28 28 30 30 29 29 30
36 33 33 33 32 32 32 32 32 32 31 32 32 31 30 28 26 26 25 23 21 21 22 23 25 27 28 22 21 24 23 21 20 21 20 22 23 25 27 27 27 27 30
33 33 32 32 32 32 32 31 32 31 31 32 29 28 27 26 25 25 24 21 19 20 21 22 24 26 25 20 18 19 20 20 20 21 19 20 22 22 23 22 23 24 24
33 32 32 32 32 32 32 31 31 32 31 28 27 27 26 25 24 24 24 20 20 19 20 21 24 24 24 20 16 16 16 17 18 18 19 18 21 21 22 21 22 20 20
34 32 32 32 32 31 31 31 31 32 29 28 27 26 26 25 24 24 24 22 20 20 20 21 23 24 23 20 19 17 16 16 16 17 16 17 18 19 21 20 21 18 17
35 34 33 32 32 32 32 31 32 30 28 27 26 26 25 24 23 22 22 21 20 20 20 20 23 24 23 19 18 18 17 16 16 16 17 13 14 14 16 17 18 17 16
36 35 36 34 34 32 31 31 31 29 26 26 26 25 25 23 22 20 19 18 18 18 18 19 22 23 20 17 18 18 18 18 18 18 18 13 12 12 11 11 13 14 14
37 39 38 34 32 32 31 33 31 28 26 25 25 25 24 23 22 20 18 17 15 15 15 16 18 20 18 16 17 17 17 17 18 18 18 17 14 12 10 8 9 10 12
41 41 37 32 32 32 33 31 27 26 25 25 24 24 23 22 21 18 15 16 15 14 13 13 15 16 17 16 16 17 15 14 14 16 17 16 15 11 11 10 8 7 7
40 36 33 32 33 33 30 28 28 26 25 25 24 24 24 21 18 18 16 16 14 13 12 12 12 16 16 16 15 15 14 13 13 13 14 14 14 12 11 10 8 6 6
33 33 32 32 31 29 28 28 26 24 25 25 23 23 23 21 19 19 18 14 11 11 10 11 11 12 16 16 15 14 12 12 12 12 12 12 12 11 11 10 9 7 6
32 32 31 30 28 27 26 26 24 25 24 23 23 22 22 22 23 21 18 14 10 9 9 9 10 10 12 16 16 14 14 14 12 10 10 11 10 11 9 9 8 6 5
30 31 30 27 26 25 25 23 25 25 23 22 22 22 23 24 23 21 19 16 11 10 10 10 9 10 11 12 17 15 13 13 11 12 9 8 8 7 7 7 6 6 4
30 30 28 26 24 24 23 24 26 24 21 20 21 23 23 22 22 21 19 16 14 12 12 10 9 9 12 11 12 11 9 9 6 6 4 6 5 2 2 3 4 4 3
30 29 27 25 24 24 25 27 26 22 20 21 22 21 21 18 19 19 18 17 15 13 11 9 9 10 14 12 11 8 7 6 5 4 2 0 -0 0 1 1 2 2 -0
30 29 28 27 27 26 26 26 26 21 21 21 20 18 16 15 14 16 17 17 14 11 12 13 11 11 14 16 12 12 10 9 7 3 1 0 -1 -0 0 0 0 0 -1

GFSMW_sfc_30mbdewp_144.txt.gz
Dewpoint
39 39 40 40 39 38 38 38 38 39 41 41 40 38 37 37 37 37 37 36 36 36 36 37 37 38 38 38 38 38 38 40 40 41 41 42 48 47 48 51 50 53 50
38 39 39 39 38 38 37 37 37 37 38 39 39 38 36 36 35 36 36 35 35 36 36 36 36 37 37 37 37 37 38 38 40 39 40 40 39 43 45 48 47 48 47
38 38 38 38 38 37 36 36 36 36 37 38 38 37 36 35 34 34 34 35 34 35 36 36 36 36 37 36 37 38 38 37 38 39 41 38 37 39 42 44 44 45 44
38 38 38 38 38 37 36 35 35 34 35 36 36 35 34 32 33 33 33 34 34 34 35 35 36 36 36 36 36 37 37 37 37 38 39 39 40 40 38 41 43 42 41
38 38 38 38 38 36 35 34 34 33 34 34 33 32 32 32 33 33 33 32 33 34 34 34 34 35 36 35 35 35 35 36 36 35 36 37 37 39 39 37 39 38 39
38 38 38 37 37 36 34 33 33 33 33 33 32 32 32 32 31 31 31 31 31 31 31 32 33 34 35 35 35 34 33 33 32 32 33 34 35 35 35 35 35 36 37
38 37 37 36 36 34 33 33 32 32 32 32 32 31 32 32 31 31 31 31 29 29 29 31 32 33 35 35 35 34 31 31 30 30 32 33 33 33 33 33 33 34 34
37 37 37 36 35 34 33 33 32 32 32 32 32 32 32 32 31 31 31 31 29 27 28 29 30 32 34 33 32 33 28 29 28 27 28 30 31 34 33 32 31 30 33
37 37 36 35 34 33 33 32 32 32 32 32 32 31 32 31 31 30 30 26 24 23 26 27 29 30 31 31 31 30 25 26 27 26 27 27 29 33 31 32 32 30 29
37 37 35 34 34 33 33 33 32 32 32 32 32 31 31 31 30 29 26 23 21 23 25 26 28 28 28 28 27 27 25 23 24 24 25 26 27 29 30 31 30 30 29
36 36 34 34 34 33 32 32 32 32 32 32 32 31 30 29 29 26 25 24 23 23 24 25 27 27 22 23 24 23 22 21 22 22 22 24 25 26 26 28 28 28 29
36 35 33 33 33 32 32 32 32 32 32 32 31 30 27 27 26 24 22 21 20 22 23 25 27 25 19 20 22 21 21 20 20 19 20 22 22 24 24 25 24 25 27
34 33 33 32 32 32 32 32 32 32 32 32 31 29 26 26 25 22 20 19 20 21 23 24 26 24 19 18 18 19 19 19 20 18 19 21 21 22 21 21 22 21 21
34 33 33 32 32 32 32 32 32 32 32 30 29 27 25 24 24 23 20 20 20 21 22 23 23 22 19 18 16 16 17 18 19 17 18 19 19 20 20 19 18 18 17
33 33 32 32 32 32 32 31 32 32 30 28 27 26 25 24 24 23 20 20 20 20 21 23 22 23 21 18 18 16 16 16 17 15 13 16 17 17 18 18 17 15 14
33 33 33 33 32 32 31 31 32 31 29 28 27 26 24 23 23 23 21 20 20 20 21 22 24 21 18 19 18 17 17 17 17 14 12 11 13 13 14 15 15 15 14
34 34 34 33 32 32 32 32 32 30 28 28 27 25 24 22 22 21 19 19 18 19 19 21 23 18 17 18 19 18 18 18 18 18 14 11 11 9 7 9 11 13 13
37 36 34 33 33 34 33 32 31 30 30 28 25 25 23 21 20 19 17 16 15 15 15 17 20 18 17 17 18 17 16 17 18 18 17 14 13 11 6 5 6 8 11
40 38 36 35 36 33 32 31 30 30 29 26 25 24 23 20 18 16 15 15 14 13 13 13 15 16 16 16 16 15 14 14 15 18 16 15 13 11 9 7 5 5 6
37 41 40 36 34 33 32 31 30 29 27 27 25 24 22 20 15 15 14 12 11 12 12 13 13 18 14 15 15 14 14 12 13 13 14 13 13 11 10 8 6 2 4
34 39 35 33 33 33 32 30 29 28 28 26 25 23 21 18 16 15 14 11 10 10 10 11 10 14 18 15 14 14 12 12 12 12 11 13 11 11 9 8 7 4 3
32 33 33 33 34 32 31 29 28 28 27 24 24 23 20 19 18 16 13 11 10 9 9 10 11 11 13 21 15 15 14 11 9 9 10 10 10 9 8 7 5 3 2
31 31 31 30 29 30 29 28 26 26 24 23 23 23 22 21 19 15 12 11 11 10 10 11 10 11 11 16 16 14 14 12 10 9 8 8 7 6 6 4 2 2 0
30 29 28 28 27 27 27 26 26 25 23 22 22 22 22 21 20 16 14 12 11 11 12 10 10 10 11 12 11 10 9 8 3 2 1 4 2 -0 0 1 0 -1 -1
29 27 26 26 25 25 26 26 26 24 22 20 21 22 22 22 21 19 16 13 13 13 11 9 11 12 9 9 8 6 5 3 2 -1 -3 -3 -3 -3 -2 -2 -1 -2 -3
29 27 26 25 24 26 26 26 26 23 20 21 21 21 20 20 18 18 18 18 15 13 13 13 11 12 13 14 15 12 10 8 5 -1 -3 -4 -3 -2 -2 -2 -3 -3 -3

GFSMW_sfc_30mbdewp_147.txt.gz
Dewpoint
41 41 40 40 40 40 40 41 42 44 43 41 40 39 37 37 37 36 36 37 37 38 37 36 37 37 37 38 39 39 39 40 41 41 41 44 50 49 51 50 50 48 48
40 40 40 40 39 39 39 39 41 43 42 41 40 38 36 35 35 35 35 36 36 37 36 37 36 37 37 38 38 39 37 38 39 40 42 41 40 43 47 48 46 45 44
39 39 39 39 39 39 38 38 38 40 41 41 39 37 36 35 34 34 34 35 36 36 36 37 37 37 37 37 37 37 37 36 37 40 39 38 38 38 42 44 44 44 42
39 39 39 39 38 38 38 37 37 38 39 40 38 37 35 32 33 33 34 34 35 35 36 36 37 36 36 36 36 36 36 36 35 36 36 38 39 38 37 39 40 41 40
39 39 39 38 38 38 36 36 36 36 37 38 38 36 34 33 33 33 33 32 33 34 34 35 36 36 35 36 36 35 35 35 34 34 35 36 36 38 36 36 37 36 37
38 39 39 38 38 37 35 35 34 34 35 35 35 34 33 32 32 32 31 29 30 32 33 34 35 35 35 35 35 33 33 32 32 33 33 34 34 34 34 34 34 34 35
38 38 38 38 37 35 34 33 33 33 33 33 33 33 33 32 32 31 31 29 28 31 32 33 34 35 34 34 33 31 31 30 30 30 31 32 32 33 33 32 32 31 32
39 38 38 38 36 35 34 32 33 33 33 32 33 33 33 32 32 32 32 28 27 29 31 32 33 33 32 32 32 28 28 29 28 28 29 29 31 32 31 31 30 29 30
38 39 38 37 36 35 33 33 32 32 33 32 32 33 32 32 31 32 31 26 25 28 30 31 31 31 29 29 30 27 24 27 27 27 28 28 28 30 29 30 31 29 27
38 38 38 37 36 34 34 33 32 32 33 32 32 32 32 31 31 28 25 23 25 27 29 29 29 26 26 26 26 24 22 22 23 24 25 26 27 27 28 28 29 30 28
38 38 37 36 35 34 33 33 33 32 32 32 32 32 31 31 29 26 25 23 24 26 27 28 25 21 22 22 22 20 20 20 19 21 23 24 25 25 25 26 27 26 27
37 37 36 35 34 34 33 33 33 32 32 32 32 31 30 29 26 24 23 22 22 26 27 27 23 19 17 18 18 18 19 18 16 19 19 20 20 22 22 22 23 23 24
37 36 35 35 34 33 33 33 33 32 32 31 30 29 28 27 24 22 20 20 22 25 26 25 22 18 16 15 16 17 18 18 16 17 18 18 18 18 18 17 17 17 18
36 35 34 34 33 33 32 32 32 33 32 31 29 27 27 26 23 21 20 20 22 24 24 23 21 19 16 15 15 15 16 17 15 15 17 17 17 17 16 15 15 14 14
35 34 34 33 33 33 32 32 33 33 32 31 29 27 26 26 23 21 19 20 21 23 23 22 21 20 18 15 15 14 15 15 13 11 11 15 16 16 17 14 15 13 11
35 34 34 33 33 33 32 32 32 33 32 30 28 27 26 25 23 21 19 19 21 22 22 22 19 17 17 19 18 15 14 14 12 9 9 10 10 9 13 14 15 13 11
34 34 34 33 33 33 33 33 33 31 30 29 27 26 25 24 23 21 18 17 20 21 22 20 18 17 18 19 18 17 16 15 15 14 11 8 8 5 3 8 10 12 12
36 35 35 36 35 35 34 33 33 31 29 28 28 28 24 23 22 20 19 20 21 22 22 20 18 17 17 18 18 18 18 17 16 15 14 13 11 9 2 2 6 9 11
42 40 39 38 36 36 35 34 32 30 29 29 27 27 24 21 20 19 18 19 19 20 20 20 19 18 17 18 18 18 18 18 18 18 15 14 12 9 7 5 5 5 7
36 42 41 38 37 36 35 33 31 30 29 28 27 26 23 20 18 18 18 18 18 19 19 19 19 17 17 16 16 17 16 16 16 16 14 13 12 10 8 7 4 3 4
34 36 40 38 36 35 34 31 30 30 29 29 27 25 21 17 17 17 17 17 18 18 18 17 18 19 17 15 15 15 15 14 13 13 14 12 11 10 9 7 6 3 4
33 35 36 35 35 34 32 31 30 30 29 28 26 23 19 16 16 17 16 16 16 16 17 18 18 20 20 16 14 14 13 13 12 11 12 11 10 8 7 6 4 3 3
32 33 33 33 33 33 32 30 28 28 27 26 24 21 18 17 16 15 15 15 16 15 16 16 17 18 20 19 16 13 12 12 11 11 9 8 8 7 5 4 3 2 2
31 31 31 31 31 32 30 28 28 28 27 24 22 20 19 17 15 14 13 12 13 13 14 15 15 16 18 17 16 15 13 11 10 7 5 3 2 1 1 2 2 2 1
29 29 29 29 28 28 27 27 27 27 25 24 22 20 20 17 16 14 13 12 13 12 12 14 13 14 15 16 13 11 9 7 4 3 3 3 3 2 2 1 1 1 2
29 27 27 27 26 27 27 27 28 27 25 24 22 21 20 19 17 16 15 14 14 14 14 15 16 15 15 13 11 10 9 7 4 2 2 2 3 2 1 0 -0 -0 -1